| time (UTC) | temp C | wind direction | speed KPH | gust KPH | rain 1hr cm | rain 24hr cm | rain mn cm | humidity % | barometer mb |
| 20260506050819 | 10 | 24 | 16.1 | 25.7 | 0.00 | 0.00 | 0.00 | 83 | 1010.8 |
| 20260506050314 | 10 | 22 | 14.5 | 22.5 | 0.00 | 0.00 | 0.00 | 83 | 1010.9 |
| 20260506044821 | 10 | 22 | 12.9 | 22.5 | 0.00 | 0.20 | 0.00 | 83 | 1010.9 |
| 20260506044316 | 10 | 30 | 12.9 | 24.1 | 0.00 | 0.20 | 0.00 | 84 | 1011.1 |
| 20260506043829 | 10 | 5 | 16.1 | 24.1 | 0.00 | 0.20 | 0.00 | 84 | 1011.1 |
| 20260506043323 | 10 | 17 | 12.9 | 24.1 | 0.00 | 0.20 | 0.00 | 84 | 1010.8 |
| 20260506042817 | 10 | 42 | 12.9 | 22.5 | 0.00 | 0.20 | 0.00 | 84 | 1010.9 |
| 20260506042331 | 10 | 28 | 11.3 | 22.5 | 0.00 | 0.20 | 0.00 | 84 | 1010.8 |
| 20260506041825 | 10 | 5 | 14.5 | 25.7 | 0.00 | 0.20 | 0.00 | 84 | 1010.8 |
| 20260506041320 | 10 | 9 | 14.5 | 25.7 | 0.00 | 0.20 | 0.00 | 84 | 1011.0 |
| 20260506040818 | 10 | 18 | 16.1 | 27.4 | 0.00 | 0.20 | 0.00 | 84 | 1010.8 |
| 20260506035827 | 10 | 27 | 16.1 | 25.7 | 0.00 | 0.20 | 0.00 | 84 | 1010.8 |
| 20260506035322 | 10 | 34 | 16.1 | 24.1 | 0.00 | 0.20 | 0.00 | 84 | 1011.0 |
| 20260506034816 | 10 | 17 | 9.7 | 20.9 | 0.00 | 0.20 | 0.00 | 84 | 1011.0 |
| 20260506034331 | 10 | 19 | 12.9 | 20.9 | 0.00 | 0.20 | 0.00 | 84 | 1010.8 |
| 20260506032816 | 10 | 32 | 11.3 | 19.3 | 0.00 | 0.20 | 0.00 | 83 | 1010.6 |
| 20260506032314 | 10 | 19 | 11.3 | 22.5 | 0.00 | 0.20 | 0.00 | 83 | 1010.5 |
| 20260506031829 | 10 | 24 | 14.5 | 22.5 | 0.00 | 0.20 | 0.00 | 83 | 1010.1 |
| 20260506030316 | 10 | 24 | 19.3 | 30.6 | 0.00 | 0.20 | 0.00 | 82 | 1009.9 |
| 20260506025831 | 10 | 57 | 17.7 | 35.4 | 0.00 | 0.20 | 0.00 | 82 | 1009.6 |
| 20260506025325 | 10 | 21 | 22.5 | 35.4 | 0.00 | 0.20 | 0.00 | 82 | 1009.4 |
| 20260506024819 | 10 | 29 | 17.7 | 33.8 | 0.00 | 0.20 | 0.00 | 83 | 1009.5 |
| 20260506024318 | 10 | 36 | 14.5 | 33.8 | 0.00 | 0.20 | 0.00 | 83 | 1009.5 |
| 20260506023832 | 10 | 24 | 17.7 | 33.8 | 0.00 | 0.20 | 0.00 | 83 | 1009.4 |
| 20260506023327 | 10 | 34 | 16.1 | 29.0 | 0.00 | 0.20 | 0.00 | 83 | 1009.2 |
| 20260506022821 | 10 | 31 | 22.5 | 35.4 | 0.00 | 0.20 | 0.00 | 83 | 1009.1 |
| 20260506021832 | 10 | 19 | 20.9 | 30.6 | 0.00 | 0.20 | 0.00 | 83 | 1008.9 |
| 20260506021327 | 10 | 37 | 16.1 | 27.4 | 0.00 | 0.20 | 0.00 | 83 | 1008.7 |
| 20260506020821 | 10 | 61 | 16.1 | 27.4 | 0.00 | 0.20 | 0.00 | 83 | 1008.6 |
| 20260506020320 | 10 | 38 | 19.3 | 29.0 | 0.00 | 0.20 | 0.00 | 83 | 1008.4 |
| 20260506015814 | 10 | 28 | 20.9 | 29.0 | 0.00 | 0.20 | 0.00 | 83 | 1008.4 |
| 20260506015328 | 10 | 39 | 19.3 | 29.0 | 0.00 | 0.20 | 0.00 | 83 | 1008.5 |
| 20260506014821 | 10 | 28 | 14.5 | 27.4 | 0.00 | 0.20 | 0.00 | 83 | 1008.2 |
| 20260506014316 | 10 | 360 | 19.3 | 29.0 | 0.00 | 0.20 | 0.00 | 82 | 1008.1 |
| 20260506013829 | 10 | 34 | 20.9 | 29.0 | 0.00 | 0.20 | 0.00 | 82 | 1008.2 |
| 20260506013324 | 10 | 24 | 19.3 | 30.6 | 0.00 | 0.20 | 0.00 | 82 | 1008.2 |
| 20260506012818 | 10 | 50 | 19.3 | 30.6 | 0.00 | 0.20 | 0.00 | 82 | 1008.1 |
| 20260506012317 | 10 | 42 | 20.9 | 32.2 | 0.00 | 0.20 | 0.00 | 82 | 1008.0 |
| 20260506011326 | 10 | 19 | 22.5 | 27.4 | 0.00 | 0.20 | 0.00 | 82 | 1007.9 |
| 20260506010820 | 10 | 38 | 19.3 | 35.4 | 0.00 | 0.20 | 0.00 | 82 | 1007.9 |
| 20260506010315 | 10 | 50 | 22.5 | 35.4 | 0.00 | 0.20 | 0.00 | 82 | 1007.9 |
| 20260506005829 | 10 | 36 | 17.7 | 27.4 | 0.00 | 0.20 | 0.00 | 82 | 1008.0 |
| 20260506005322 | 10 | 17 | 19.3 | 27.4 | 0.00 | 0.20 | 0.00 | 81 | 1007.9 |
| 20260506004815 | 10 | 53 | 19.3 | 27.4 | 0.00 | 0.20 | 0.00 | 81 | 1007.6 |
| 20260506004313 | 10 | 26 | 19.3 | 30.6 | 0.00 | 0.20 | 0.00 | 81 | 1007.6 |
| 20260506003826 | 10 | 38 | 16.1 | 32.2 | 0.00 | 0.20 | 0.00 | 81 | 1007.5 |
| 20260506002313 | 10 | 19 | 16.1 | 22.5 | 0.00 | 0.20 | 0.00 | 80 | 1007.5 |
| 20260506001828 | 10 | 27 | 14.5 | 27.4 | 0.00 | 0.20 | 0.00 | 80 | 1007.6 |
| 20260506001320 | 10 | 29 | 16.1 | 30.6 | 0.00 | 0.20 | 0.00 | 79 | 1007.6 |
| 20260506000814 | 10 | 22 | 14.5 | 30.6 | 0.00 | 0.20 | 0.00 | 79 | 1007.6 |
| 20260506000330 | 10 | 5 | 16.1 | 27.4 | 0.00 | 0.20 | 0.00 | 79 | 1007.5 |
| 20260505235827 | 10 | 34 | 16.1 | 22.5 | 0.00 | 0.20 | 0.00 | 79 | 1007.6 |
| 20260505235322 | 11 | 17 | 16.1 | 29.0 | 0.00 | 0.20 | 0.00 | 79 | 1007.6 |
| 20260505234816 | 11 | 12 | 17.7 | 30.6 | 0.00 | 0.20 | 0.00 | 78 | 1007.7 |
| 20260505234330 | 11 | 26 | 17.7 | 30.6 | 0.00 | 0.20 | 0.00 | 78 | 1007.5 |
| 20260505233823 | 11 | 44 | 16.1 | 32.2 | 0.00 | 0.20 | 0.00 | 78 | 1007.3 |
| 20260505233318 | 11 | 19 | 22.5 | 32.2 | 0.00 | 0.20 | 0.00 | 78 | 1007.1 |
| 20260505232831 | 11 | 24 | 20.9 | 30.6 | 0.00 | 0.20 | 0.00 | 78 | 1007.3 |
| 20260505231824 | 11 | 44 | 19.3 | 29.0 | 0.00 | 0.20 | 0.00 | 77 | 1007.1 |
| 20260505231317 | 11 | 11 | 20.9 | 30.6 | 0.00 | 0.20 | 0.00 | 77 | 1007.0 |
| 20260505230832 | 11 | 13 | 16.1 | 33.8 | 0.00 | 0.20 | 0.00 | 77 | 1006.9 |
| 20260505230326 | 11 | 40 | 17.7 | 30.6 | 0.00 | 0.20 | 0.00 | 77 | 1007.0 |
| 20260505225821 | 11 | 35 | 17.7 | 33.8 | 0.00 | 0.20 | 0.00 | 77 | 1006.6 |
| 20260505225314 | 11 | 40 | 19.3 | 40.2 | 0.00 | 0.20 | 0.00 | 76 | 1006.4 |
| 20260505224828 | 11 | 40 | 22.5 | 35.4 | 0.00 | 0.20 | 0.00 | 76 | 1006.5 |
| 20260505224327 | 11 | 22 | 17.7 | 30.6 | 0.00 | 0.20 | 0.00 | 75 | 1006.5 |
| 20260505223821 | 11 | 42 | 20.9 | 30.6 | 0.00 | 0.20 | 0.00 | 76 | 1006.1 |
| 20260505223316 | 11 | 23 | 19.3 | 32.2 | 0.00 | 0.20 | 0.00 | 76 | 1006.2 |
| 20260505222829 | 11 | 30 | 20.9 | 32.2 | 0.00 | 0.20 | 0.00 | 75 | 1006.4 |
| 20260505222323 | 11 | 28 | 19.3 | 33.8 | 0.00 | 0.20 | 0.00 | 76 | 1006.4 |
| 20260505221333 | 11 | 51 | 16.1 | 30.6 | 0.00 | 0.20 | 0.00 | 77 | 1006.4 |
| 20260505220827 | 11 | 44 | 20.9 | 35.4 | 0.00 | 0.20 | 0.00 | 76 | 1006.4 |
| 20260505220325 | 11 | 22 | 19.3 | 37.0 | 0.00 | 0.20 | 0.00 | 76 | 1006.4 |
| 20260505215818 | 12 | 28 | 27.4 | 37.0 | 0.00 | 0.20 | 0.00 | 76 | 1006.3 |
| 20260505215332 | 12 | 351 | 16.1 | 32.2 | 0.00 | 0.20 | 0.00 | 77 | 1006.1 |
| 20260505214323 | 12 | 42 | 17.7 | 45.1 | 0.00 | 0.20 | 0.00 | 76 | 1006.0 |
| 20260505213818 | 12 | 36 | 22.5 | 45.1 | 0.00 | 0.20 | 0.00 | 76 | 1005.8 |
| 20260505212826 | 12 | 36 | 19.3 | 37.0 | 0.00 | 0.20 | 0.00 | 77 | 1005.9 |
| 20260505210832 | 12 | 35 | 20.9 | 37.0 | 0.00 | 0.20 | 0.00 | 77 | 1006.0 |
| 20260505210326 | 12 | 17 | 25.7 | 37.0 | 0.00 | 0.20 | 0.00 | 77 | 1006.0 |
| 20260505205318 | 12 | 36 | 22.5 | 33.8 | 0.00 | 0.20 | 0.00 | 79 | 1005.7 |
| 20260505204832 | 12 | 26 | 17.7 | 38.6 | 0.00 | 0.20 | 0.00 | 80 | 1005.5 |
| 20260505204327 | 12 | 43 | 24.1 | 37.0 | 0.00 | 0.20 | 0.00 | 80 | 1005.5 |
| 20260505203821 | 12 | 36 | 20.9 | 37.0 | 0.00 | 0.20 | 0.00 | 81 | 1005.5 |
| 20260505203320 | 12 | 46 | 24.1 | 37.0 | 0.00 | 0.20 | 0.00 | 81 | 1005.5 |
| 20260505202832 | 12 | 28 | 19.3 | 35.4 | 0.00 | 0.20 | 0.00 | 82 | 1005.5 |
| 20260505202327 | 12 | 55 | 17.7 | 37.0 | 0.00 | 0.20 | 0.00 | 83 | 1005.5 |
| 20260505201317 | 12 | 22 | 19.3 | 32.2 | 0.00 | 0.20 | 0.00 | 83 | 1005.7 |
| 20260505200328 | 12 | 16 | 19.3 | 32.2 | 0.00 | 0.20 | 0.00 | 83 | 1005.6 |
| 20260505195823 | 12 | 15 | 19.3 | 32.2 | 0.00 | 0.20 | 0.00 | 83 | 1005.5 |
| 20260505195317 | 12 | 28 | 17.7 | 33.8 | 0.00 | 0.20 | 0.00 | 83 | 1005.4 |
| 20260505194815 | 12 | 5 | 19.3 | 33.8 | 0.00 | 0.20 | 0.00 | 83 | 1005.5 |
| 20260505193323 | 12 | 32 | 19.3 | 37.0 | 0.00 | 0.20 | 0.00 | 83 | 1005.3 |
| 20260505192817 | 12 | 28 | 24.1 | 37.0 | 0.00 | 0.20 | 0.00 | 83 | 1005.3 |
| 20260505192330 | 12 | 38 | 20.9 | 33.8 | 0.00 | 0.20 | 0.00 | 84 | 1005.3 |
| 20260505190817 | 12 | 26 | 19.3 | 30.6 | 0.00 | 0.20 | 0.00 | 84 | 1005.1 |
| 20260505190315 | 12 | 61 | 20.9 | 29.0 | 0.00 | 0.20 | 0.00 | 84 | 1005.0 |
| 20260505185325 | 13 | 54 | 22.5 | 33.8 | 0.00 | 0.20 | 0.00 | 85 | 1005.2 |
| 20260505184818 | 13 | 30 | 16.1 | 25.7 | 0.00 | 0.20 | 0.00 | 85 | 1005.5 |
| 20260505184325 | 13 | 42 | 12.9 | 25.7 | 0.00 | 0.20 | 0.00 | 85 | 1005.5 |
| 20260505183819 | 13 | 26 | 12.9 | 32.2 | 0.00 | 0.20 | 0.00 | 85 | 1005.2 |
| 20260505183334 | 13 | 19 | 20.9 | 32.2 | 0.00 | 0.20 | 0.00 | 85 | 1004.8 |
| 20260505182323 | 13 | 31 | 19.3 | 27.4 | 0.00 | 0.20 | 0.00 | 85 | 1004.6 |
| 20260505181821 | 13 | 32 | 16.1 | 27.4 | 0.00 | 0.20 | 0.00 | 86 | 1004.6 |
| 20260505181316 | 13 | 44 | 19.3 | 29.0 | 0.00 | 0.20 | 0.00 | 86 | 1004.6 |
| 20260505180830 | 13 | 24 | 19.3 | 30.6 | 0.00 | 0.20 | 0.00 | 86 | 1004.7 |
| 20260505180325 | 13 | 30 | 20.9 | 30.6 | 0.00 | 0.20 | 0.00 | 86 | 1004.7 |
| 20260505175819 | 13 | 42 | 16.1 | 29.0 | 0.00 | 0.20 | 0.00 | 87 | 1004.7 |
| 20260505174829 | 13 | 26 | 16.1 | 30.6 | 0.00 | 0.20 | 0.00 | 87 | 1004.9 |
| 20260505174324 | 13 | 51 | 17.7 | 30.6 | 0.00 | 0.20 | 0.00 | 87 | 1004.7 |
| 20260505173822 | 13 | 16 | 20.9 | 30.6 | 0.00 | 0.20 | 0.00 | 87 | 1004.3 |
| 20260505173317 | 13 | 34 | 22.5 | 33.8 | 0.00 | 0.20 | 0.00 | 87 | 1004.2 |
| 20260505172831 | 13 | 19 | 19.3 | 33.8 | 0.00 | 0.20 | 0.00 | 87 | 1004.1 |
| 20260505171822 | 13 | 59 | 22.5 | 37.0 | 0.00 | 0.20 | 0.00 | 87 | 1003.7 |
| 20260505171317 | 13 | 32 | 22.5 | 37.0 | 0.00 | 0.20 | 0.00 | 87 | 1003.7 |
| 20260505170830 | 13 | 5 | 19.3 | 35.4 | 0.00 | 0.20 | 0.00 | 87 | 1003.7 |
| 20260505170325 | 13 | 360 | 22.5 | 35.4 | 0.00 | 0.20 | 0.00 | 87 | 1003.6 |
| 20260505165823 | 13 | 42 | 19.3 | 35.4 | 0.00 | 0.20 | 0.00 | 87 | 1003.9 |
| 20260505165316 | 13 | 28 | 24.1 | 35.4 | 0.00 | 0.20 | 0.00 | 87 | 1003.8 |
| 20260505164831 | 13 | 19 | 20.9 | 30.6 | 0.00 | 0.20 | 0.00 | 87 | 1003.7 |
| 20260505164325 | 13 | 36 | 20.9 | 35.4 | 0.00 | 0.20 | 0.00 | 87 | 1003.5 |
| 20260505163820 | 13 | 9 | 22.5 | 33.8 | 0.00 | 0.20 | 0.00 | 87 | 1003.5 |
| 20260505163333 | 13 | 22 | 20.9 | 33.8 | 0.00 | 0.20 | 0.00 | 87 | 1003.4 |
| 20260505162323 | 14 | 11 | 22.5 | 32.2 | 0.00 | 0.20 | 0.00 | 87 | 1003.3 |
| 20260505161822 | 14 | 5 | 19.3 | 32.2 | 0.00 | 0.20 | 0.00 | 87 | 1003.5 |
| 20260505161316 | 14 | 34 | 22.5 | 33.8 | 0.00 | 0.20 | 0.00 | 87 | 1003.4 |
| 20260505160831 | 14 | 360 | 20.9 | 33.8 | 0.00 | 0.20 | 0.00 | 87 | 1003.4 |
| 20260505160325 | 15 | 32 | 19.3 | 38.6 | 0.00 | 0.20 | 0.00 | 87 | 1003.2 |
| 20260505153321 | 15 | 28 | 19.3 | 30.6 | 0.00 | 0.20 | 0.00 | 87 | 1002.8 |
| 20260505152815 | 15 | 33 | 17.7 | 27.4 | 0.00 | 0.20 | 0.00 | 87 | 1002.8 |
| 20260505152329 | 15 | 323 | 12.9 | 27.4 | 0.00 | 0.20 | 0.00 | 87 | 1002.7 |
| 20260505151319 | 16 | 350 | 17.7 | 27.4 | 0.00 | 0.20 | 0.00 | 86 | 1002.7 |
| 20260505150833 | 16 | 344 | 19.3 | 27.4 | 0.00 | 0.20 | 0.00 | 86 | 1002.4 |
| 20260505140317 | 18 | 24 | 11.3 | 17.7 | 0.00 | 0.20 | 0.00 | 86 | 1001.8 |
| 20260505124827 | 18 | 24 | 9.7 | 14.5 | 0.00 | 0.20 | 0.00 | 85 | 1002.1 |
| 20260505123818 | 18 | 95 | 4.8 | 16.1 | 0.00 | 0.20 | 0.00 | 86 | 1002.0 |